This demonstration page uses our WeatherBlox Daily Observations layout. Learn more.

Left ArrowRight Arrow

Hourly Observations for April 12, 2016

Temp ( °F °C ) Dew Point ( °F °C ) Humidity (%) Winds ( mph kmh ) Pressure ( in mb ) Visibility ( mi km ) Precip ( " mm )
12:54 am 00:54 Clear 32 0 16 -8.9 52 52 Calm 30.29 1026 10 16 0.00 0.00
1:54 am 01:54 Clear 30 -1.1 18 -7.8 61 61 Calm 30.32 1027 10 16 0.00 0.00
2:54 am 02:54 Clear 26 -3.3 17 -8.3 69 69 N 7 11 30.31 1026 10 16 0.00 0.00
3:54 am 03:54 Clear 31 -0.6 19 -7.2 61 61 WNW 3 6 30.31 1026 10 16 0.00 0.00
4:54 am 04:54 Clear 27 -3 18 -8 69 69 Calm 30.36 1028 10 16 0.00 0.00
5:54 am 05:54 Clear 25 -3.9 18 -7.8 75 75 N 3 6 30.34 1027 10 16 0.00 0.00
6:54 am 06:54 Sunny 28 -2.2 19 -7.2 69 69 W 3 6 30.34 1028 10 16 0.00 0.00
7:54 am 07:54 Sunny 31 -0.6 22 -5.6 69 69 Calm 30.35 1028 10 16 0.00 0.00
8:54 am 08:54 Sunny 41 5 21 -6.1 45 45 S 8 13 30.35 1028 10 16 0.00 0.00
9:54 am 09:54 Sunny 49 9.4 20 -6.7 32 32 S 15 24 30.32 1027 10 16 0.00 0.00
10:54 am 10:54 Sunny 53 11.7 21 -6.1 28 28 SSE 12 19 30.30 1026 10 16 0.00 0.00
11:54 am 11:54 Mostly Cloudy 58 14.4 22 -5.6 25 25 S 15 24 30.27 1025 10 16 0.00 0.00
12:54 pm 12:54 Sunny 61 16.1 24 -4.4 24 24 S 15 24 30.24 1024 10 16 0.00 0.00
1:54 pm 13:54 Sunny 64 17.8 25 -3.9 23 23 S 17 28 30.21 1023 10 16 0.00 0.00
2:54 pm 14:54 Sunny 67 19.4 26 -3.3 21 21 SSW 18 30 30.17 1022 10 16 0.00 0.00
3:54 pm 15:54 Sunny 68 20 27 -2.8 21 21 S 22 35 30.14 1021 10 16 0.00 0.00
4:54 pm 16:54 Sunny 69 20.6 28 -2.2 22 22 S 20 31 30.11 1020 10 16 0.00 0.00
5:54 pm 17:54 Sunny 68 20 28 -2.2 22 22 SSW 21 33 30.11 1020 10 16 0.00 0.00
6:54 pm 18:54 Sunny 66 18.9 27 -2.8 23 23 S 17 28 30.10 1019 10 16 0.00 0.00
7:54 pm 19:54 Sunny 61 16.1 28 -2.2 29 29 S 13 20 30.10 1019 10 16 0.00 0.00
8:42 pm 20:42 Mostly Cloudy with Haze 55 13 27 -3 33 33 S 12 19 30.12 1020 4 6 0.00 0.00
8:54 pm 20:54 Cloudy with Haze 56 13.3 26 -3.3 32 32 S 14 22 30.11 1020 4 6 0.00 0.00
9:54 pm 21:54 Cloudy with Haze 54 12.2 27 -2.8 35 35 SSE 13 20 30.13 1020 6 10 0.00 0.00
10:54 pm 22:54 Mostly Cloudy 53 11.7 27 -2.8 37 37 S 14 22 30.12 1020 7 11 0.00 0.00
11:54 pm 23:54 Cloudy 50 10 28 -2.2 43 43 S 12 19 30.12 1020 8 13 0.00 0.00

Powered by AerisWeather